Location: Baia Mare
(47.6567°N, 23.5850°E)
Time: 18:26:53

ISS - Pass Details

Date: 13 March 2018
Orbit: 403 x 406 km, 51.6° (Epoch: 20 March)

Event Time Altitude Azimuth Distance (km) Brightness Sun altitude
Exits shadow 05:37:13 15° 299° (WNW) 1,205 -1.9 -11.9°
Maximum altitude 05:39:48 60° 17° (NNE) 469 -3.4 -11.5°
Drops below altitude 10° 05:43:03 10° 99° (E) 1,461 0.3 -11.0°
Sets 05:45:09 0° 103° (ESE) 2,318 1.5 -10.6°
